"FRM_AIS_EDR_2057.DAT           ",2005-08-21T17:06:00.87 ,"1/0072723955.49011",    0,    0,  209990,"AIS","B1","B1","B0","B0","PISd",0,0,0,0,"B1", 0,15,   0, 0,    0,"AIS","N/A    ","OK ","OK ",    001173.525,    -064.437,    -039.991,    0014.746,    0047.525
"FRM_AIS_EDR_2057.DAT           ",2005-08-21T17:06:08.42 ,"1/0072723963.19075",    0,    1,  209990,"AIS","B1","B1","B0","B0","PISd",0,0,0,0,"B1", 0,15,   0, 0,    0,"AIS","N/A    ","OK ","OK ",    001163.150,    -064.111,    -039.919,    0014.753,    0047.371
"FRM_AIS_EDR_2057.DAT           ",2005-08-21T17:06:15.96 ,"1/0072723970.54674",    0,    2,  209990,"AIS","B1","B1","B0","B0","PISd",0,0,0,0,"B1", 0,15,   0, 0,    0,"AIS","N/A    ","OK ","OK ",    001152.806,    -063.784,    -039.848,    0014.760,    0047.218
"FRM_AIS_EDR_2057.DAT           ",2005-08-21T17:06:23.50 ,"1/0072723978.24737",    0,    3,  209990,"AIS","B1","B1","B0","B0","PISd",0,0,0,0,"B1", 0,15,   0, 0,    0,"AIS","N/A    ","OK ","OK ",    001142.494,    -063.455,    -039.780,    0014.767,    0047.065
"FRM_AIS_EDR_2057.DAT           ",2005-08-21T17:06:31.05 ,"1/0072723985.60337",    0,    4,  209990,"AIS","B1","B1","B0","B0","PISd",0,0,0,0,"B1", 0,15,   0, 0,    0,"AIS","N/A    ","OK ","OK ",    001132.214,    -063.124,    -039.714,    0014.773,    0046.914
"FRM_AIS_EDR_2057.DAT           ",2005-08-21T17:06:38.59 ,"1/0072723993.30400",    0,    5,  209990,"AIS","B1","B1","B0","B0","PISd",0,0,0,0,"B1", 0,15,   0, 0,    0,"AIS","N/A    ","OK ","OK ",    001121.967,    -062.792,    -039.649,    0014.779,    0046.762
"FRM_AIS_EDR_2057.DAT           ",2005-08-21T17:06:46.13 ,"1/0072724001.00463",    0,    6,  209990,"AIS","B1","B1","B0","B0","PISd",0,0,0,0,"B1", 0,15,   0, 0,    0,"AIS","N/A    ","OK ","OK ",    001111.753,    -062.459,    -039.586,    0014.786,    0046.612
"FRM_AIS_EDR_2057.DAT           ",2005-08-21T17:06:53.68 ,"1/0072724008.36063",    0,    7,  209990,"AIS","B1","B1","B0","B0","PISd",0,0,0,0,"B1", 0,15,   0, 0,    0,"AIS","N/A    ","OK ","OK ",    001101.573,    -062.124,    -039.524,    0014.792,    0046.463
"FRM_AIS_EDR_2057.DAT           ",2005-08-21T17:07:01.22 ,"1/0072724016.06126",    0,    8,  209990,"AIS","B1","B1","B0","B0","PISd",0,0,0,0,"B1", 0,15,   0, 0,    0,"AIS","N/A    ","OK ","OK ",    001091.428,    -061.787,    -039.464,    0014.798,    0046.314
"FRM_AIS_EDR_2057.DAT           ",2005-08-21T17:07:08.76 ,"1/0072724023.41725",    0,    9,  209990,"AIS","B1","B1","B0","B0","PISd",0,0,0,0,"B1", 0,15,   0, 0,    0,"AIS","N/A    ","OK ","OK ",    001081.317,    -061.449,    -039.406,    0014.804,    0046.166
"FRM_AIS_EDR_2057.DAT           ",2005-08-21T17:07:16.31 ,"1/0072724031.11789",    0,   10,  209990,"AIS","B1","B1","B0","B0","PISd",0,0,0,0,"B1", 0,15,   0, 0,    0,"AIS","N/A    ","OK ","OK ",    001071.241,    -061.109,    -039.350,    0014.810,    0046.019
"FRM_AIS_EDR_2057.DAT           ",2005-08-21T17:07:23.85 ,"1/0072724038.47388",    0,   11,  209990,"AIS","B1","B1","B0","B0","PISd",0,0,0,0,"B1", 0,15,   0, 0,    0,"AIS","N/A    ","OK ","OK ",    001061.202,    -060.768,    -039.294,    0014.815,    0045.873
"FRM_AIS_EDR_2057.DAT           ",2005-08-21T17:07:31.39 ,"1/0072724046.17451",    0,   12,  209990,"AIS","B1","B1","B0","B0","PISd",0,0,0,0,"B1", 0,15,   0, 0,    0,"AIS","N/A    ","OK ","OK ",    001051.198,    -060.425,    -039.241,    0014.821,    0045.728
"FRM_AIS_EDR_2057.DAT           ",2005-08-21T17:07:38.93 ,"1/0072724053.53051",    0,   13,  209990,"AIS","B1","B1","B0","B0","PISd",0,0,0,0,"B1", 0,15,   0, 0,    0,"AIS","N/A    ","OK ","OK ",    001041.232,    -060.080,    -039.188,    0014.826,    0045.584
"FRM_AIS_EDR_2057.DAT           ",2005-08-21T17:07:46.48 ,"1/0072724061.23114",    0,   14,  209990,"AIS","B1","B1","B0","B0","PISd",0,0,0,0,"B1", 0,15,   0, 0,    0,"AIS","N/A    ","OK ","OK ",    001031.303,    -059.734,    -039.137,    0014.832,    0045.441
"FRM_AIS_EDR_2057.DAT           ",2005-08-21T17:07:54.02 ,"1/0072724068.58713",    0,   15,  209990,"AIS","B1","B1","B0","B0","PISd",0,0,0,0,"B1", 0,15,   0, 0,    0,"AIS","N/A    ","OK ","OK ",    001021.412,    -059.386,    -039.087,    0014.837,    0045.299
"FRM_AIS_EDR_2057.DAT           ",2005-08-21T17:08:01.56 ,"1/0072724076.28777",    0,   16,  209990,"AIS","B1","B1","B0","B0","PISd",0,0,0,0,"B1", 0,15,   0, 0,    0,"AIS","N/A    ","OK ","OK ",    001011.559,    -059.037,    -039.039,    0014.842,    0045.158
"FRM_AIS_EDR_2057.DAT           ",2005-08-21T17:08:09.11 ,"1/0072724083.64376",    0,   17,  209990,"AIS","B1","B1","B0","B0","PISd",0,0,0,0,"B1", 0,15,   0, 0,    0,"AIS","N/A    ","OK ","OK ",    001001.746,    -058.686,    -038.992,    0014.848,    0045.018
"FRM_AIS_EDR_2057.DAT           ",2005-08-21T17:08:16.65 ,"1/0072724091.34439",    0,   18,  209990,"AIS","B1","B1","B0","B0","PISd",0,0,0,0,"B1", 0,15,   0, 0,    0,"AIS","N/A    ","OK ","OK ",    000991.972,    -058.333,    -038.946,    0014.853,    0044.880
"FRM_AIS_EDR_2057.DAT           ",2005-08-21T17:08:24.19 ,"1/0072724099.04503",    0,   19,  209990,"AIS","B1","B1","B0","B0","PISd",0,0,0,0,"B1", 0,15,   0, 0,    0,"AIS","N/A    ","OK ","OK ",    000982.239,    -057.979,    -038.901,    0014.858,    0044.743
"FRM_AIS_EDR_2057.DAT           ",2005-08-21T17:08:31.74 ,"1/0072724106.40102",    0,   20,  209990,"AIS","B1","B1","B0","B0","PISd",0,0,0,0,"B1", 0,15,   0, 0,    0,"AIS","N/A    ","OK ","OK ",    000972.546,    -057.623,    -038.857,    0014.863,    0044.607
"FRM_AIS_EDR_2057.DAT           ",2005-08-21T17:08:39.28 ,"1/0072724114.10165",    0,   21,  209990,"AIS","B1","B1","B0","B0","PISd",0,0,0,0,"B1", 0,15,   0, 0,    0,"AIS","N/A    ","OK ","OK ",    000962.894,    -057.266,    -038.815,    0014.868,    0044.472
"FRM_AIS_EDR_2057.DAT           ",2005-08-21T17:08:46.82 ,"1/0072724121.45765",    0,   22,  209990,"AIS","B1","B1","B0","B0","PISd",0,0,0,0,"B1", 0,15,   0, 0,    0,"AIS","N/A    ","OK ","OK ",    000953.285,    -056.907,    -038.774,    0014.873,    0044.339
"FRM_AIS_EDR_2057.DAT           ",2005-08-21T17:08:54.37 ,"1/0072724129.15828",    0,   23,  209990,"AIS","B1","B1","B0","B0","PISd",0,0,0,0,"B1", 0,15,   0, 0,    0,"AIS","N/A    ","OK ","OK ",    000943.718,    -056.546,    -038.733,    0014.877,    0044.207
"FRM_AIS_EDR_2057.DAT           ",2005-08-21T17:09:01.91 ,"1/0072724136.51427",    0,   24,  209990,"AIS","B1","B1","B0","B0","PISd",0,0,0,0,"B1", 0,15,   0, 0,    0,"AIS","N/A    ","OK ","OK ",    000934.194,    -056.184,    -038.694,    0014.882,    0044.076
"FRM_AIS_EDR_2057.DAT           ",2005-08-21T17:09:09.45 ,"1/0072724144.21491",    0,   25,  209990,"AIS","B1","B1","B0","B0","PISd",0,0,0,0,"B1", 0,15,   0, 0,    0,"AIS","N/A    ","OK ","OK ",    000924.713,    -055.820,    -038.656,    0014.886,    0043.947
"FRM_AIS_EDR_2057.DAT           ",2005-08-21T17:09:17.00 ,"1/0072724151.57090",    0,   26,  209990,"AIS","B1","B1","B0","B0","PISd",0,0,0,0,"B1", 0,15,   0, 0,    0,"AIS","N/A    ","OK ","OK ",    000915.277,    -055.454,    -038.618,    0014.891,    0043.820
"FRM_AIS_EDR_2057.DAT           ",2005-08-21T17:09:24.54 ,"1/0072724159.27153",    0,   27,  209990,"AIS","B1","B1","B0","B0","PISd",0,0,0,0,"B1", 0,15,   0, 0,    0,"AIS","N/A    ","OK ","OK ",    000905.885,    -055.087,    -038.582,    0014.895,    0043.694
"FRM_AIS_EDR_2057.DAT           ",2005-08-21T17:09:32.08 ,"1/0072724166.62753",    0,   28,  209990,"AIS","B1","B1","B0","B0","PISd",0,0,0,0,"B1", 0,15,   0, 0,    0,"AIS","N/A    ","OK ","OK ",    000896.539,    -054.718,    -038.547,    0014.900,    0043.570
"FRM_AIS_EDR_2057.DAT           ",2005-08-21T17:09:39.63 ,"1/0072724174.32816",    0,   29,  209990,"AIS","B1","B1","B0","B0","PISd",0,0,0,0,"B1", 0,15,   0, 0,    0,"AIS","N/A    ","OK ","OK ",    000887.239,    -054.348,    -038.512,    0014.904,    0043.447
"FRM_AIS_EDR_2057.DAT           ",2005-08-21T17:09:47.17 ,"1/0072724182.02879",    0,   30,  209990,"AIS","B1","B1","B0","B0","PISd",0,0,0,0,"B1", 0,15,   0, 0,    0,"AIS","N/A    ","OK ","OK ",    000877.986,    -053.976,    -038.478,    0014.908,    0043.326
"FRM_AIS_EDR_2057.DAT           ",2005-08-21T17:09:54.71 ,"1/0072724189.38479",    0,   31,  209990,"AIS","B1","B1","B0","B0","PISd",0,0,0,0,"B1", 0,15,   0, 0,    0,"AIS","N/A    ","OK ","OK ",    000868.780,    -053.602,    -038.446,    0014.913,    0043.207
"FRM_AIS_EDR_2057.DAT           ",2005-08-21T17:10:02.26 ,"1/0072724197.08542",    0,   32,  209990,"AIS","B1","B1","B0","B0","PISd",0,0,0,0,"B1", 0,15,   0, 0,    0,"AIS","N/A    ","OK ","OK ",    000859.621,    -053.227,    -038.414,    0014.917,    0043.090
"FRM_AIS_EDR_2057.DAT           ",2005-08-21T17:10:09.80 ,"1/0072724204.44141",    0,   33,  209990,"AIS","B1","B1","B0","B0","PISd",0,0,0,0,"B1", 0,15,   0, 0,    0,"AIS","N/A    ","OK ","OK ",    000850.511,    -052.850,    -038.383,    0014.921,    0042.975
"FRM_AIS_EDR_2057.DAT           ",2005-08-21T17:10:17.34 ,"1/0072724212.14205",    0,   34,  209990,"AIS","B1","B1","B0","B0","PISd",0,0,0,0,"B1", 0,15,   0, 0,    0,"AIS","N/A    ","OK ","OK ",    000841.450,    -052.472,    -038.353,    0014.925,    0042.861
"FRM_AIS_EDR_2057.DAT           ",2005-08-21T17:10:24.89 ,"1/0072724219.49804",    0,   35,  209990,"AIS","B1","B1","B0","B0","PISd",0,0,0,0,"B1", 0,15,   0, 0,    0,"AIS","N/A    ","OK ","OK ",    000832.439,    -052.092,    -038.323,    0014.929,    0042.750
"FRM_AIS_EDR_2057.DAT           ",2005-08-21T17:10:32.43 ,"1/0072724227.19867",    0,   36,  209990,"AIS","B1","B1","B0","B0","PISd",0,0,0,0,"B1", 0,15,   0, 0,    0,"AIS","N/A    ","OK ","OK ",    000823.478,    -051.710,    -038.294,    0014.933,    0042.641
"FRM_AIS_EDR_2057.DAT           ",2005-08-21T17:10:39.97 ,"1/0072724234.55467",    0,   37,  209990,"AIS","B1","B1","B0","B0","PISd",0,0,0,0,"B1", 0,15,   0, 0,    0,"AIS","N/A    ","OK ","OK ",    000814.568,    -051.326,    -038.266,    0014.937,    0042.533
"FRM_AIS_EDR_2057.DAT           ",2005-08-21T17:10:47.51 ,"1/0072724242.25530",    0,   38,  209990,"AIS","B1","B1","B0","B0","PISd",0,0,0,0,"B1", 0,15,   0, 0,    0,"AIS","N/A    ","OK ","OK ",    000805.710,    -050.941,    -038.239,    0014.941,    0042.428
"FRM_AIS_EDR_2057.DAT           ",2005-08-21T17:10:55.06 ,"1/0072724249.61129",    0,   39,  209990,"AIS","B1","B1","B0","B0","PISd",0,0,0,0,"B1", 0,15,   0, 0,    0,"AIS","N/A    ","OK ","OK ",    000796.904,    -050.555,    -038.213,    0014.944,    0042.325
"FRM_AIS_EDR_2057.DAT           ",2005-08-21T17:11:02.60 ,"1/0072724257.31192",    0,   40,  209990,"AIS","B1","B1","B0","B0","PISd",0,0,0,0,"B1", 0,15,   0, 0,    0,"AIS","N/A    ","OK ","OK ",    000788.150,    -050.166,    -038.187,    0014.948,    0042.225
"FRM_AIS_EDR_2057.DAT           ",2005-08-21T17:11:10.14 ,"1/0072724265.01256",    0,   41,  209990,"AIS","B1","B1","B0","B0","PISd",0,0,0,0,"B1", 0,15,   0, 0,    0,"AIS","N/A    ","OK ","OK ",    000779.450,    -049.776,    -038.162,    0014.952,    0042.126
"FRM_AIS_EDR_2057.DAT           ",2005-08-21T17:11:17.69 ,"1/0072724272.36855",    0,   42,  209990,"AIS","B1","B1","B0","B0","PISd",0,0,0,0,"B1", 0,15,   0, 0,    0,"AIS","N/A    ","OK ","OK ",    000770.805,    -049.385,    -038.137,    0014.956,    0042.030
"FRM_AIS_EDR_2057.DAT           ",2005-08-21T17:11:25.23 ,"1/0072724280.06918",    0,   43,  209990,"AIS","B1","B1","B0","B0","PISd",0,0,0,0,"B1", 0,15,   0, 0,    0,"AIS","N/A    ","OK ","OK ",    000762.214,    -048.991,    -038.114,    0014.959,    0041.937
"FRM_AIS_EDR_2057.DAT           ",2005-08-21T17:11:32.77 ,"1/0072724287.42518",    0,   44,  209990,"AIS","B1","B1","B0","B0","PISd",0,0,0,0,"B1", 0,15,   0, 0,    0,"AIS","N/A    ","OK ","OK ",    000753.678,    -048.597,    -038.090,    0014.963,    0041.846
"FRM_AIS_EDR_2057.DAT           ",2005-08-21T17:11:40.32 ,"1/0072724295.12581",    0,   45,  209990,"AIS","B1","B1","B0","B0","PISd",0,0,0,0,"B1", 0,15,   0, 0,    0,"AIS","N/A    ","OK ","OK ",    000745.198,    -048.200,    -038.068,    0014.966,    0041.757
"FRM_AIS_EDR_2057.DAT           ",2005-08-21T17:11:47.86 ,"1/0072724302.48180",    0,   46,  209990,"AIS","B1","B1","B0","B0","PISd",0,0,0,0,"B1", 0,15,   0, 0,    0,"AIS","N/A    ","OK ","OK ",    000736.776,    -047.802,    -038.046,    0014.970,    0041.671
"FRM_AIS_EDR_2057.DAT           ",2005-08-21T17:11:55.40 ,"1/0072724310.18244",    0,   47,  209990,"AIS","B1","B1","B0","B0","PISd",0,0,0,0,"B1", 0,15,   0, 0,    0,"AIS","N/A    ","OK ","OK ",    000728.410,    -047.402,    -038.025,    0014.973,    0041.588
"FRM_AIS_EDR_2057.DAT           ",2005-08-21T17:12:02.95 ,"1/0072724317.53843",    0,   48,  209990,"AIS","B1","B1","B0","B0","PISd",0,0,0,0,"B1", 0,15,   0, 0,    0,"AIS","N/A    ","OK ","OK ",    000720.103,    -047.001,    -038.004,    0014.977,    0041.507
"FRM_AIS_EDR_2057.DAT           ",2005-08-21T17:12:10.49 ,"1/0072724325.23906",    0,   49,  209990,"AIS","B1","B1","B0","B0","PISd",0,0,0,0,"B1", 0,15,   0, 0,    0,"AIS","N/A    ","OK ","OK ",    000711.854,    -046.598,    -037.984,    0014.980,    0041.429
"FRM_AIS_EDR_2057.DAT           ",2005-08-21T17:12:18.03 ,"1/0072724332.59506",    0,   50,  209990,"AIS","B1","B1","B0","B0","PISd",0,0,0,0,"B1", 0,15,   0, 0,    0,"AIS","N/A    ","OK ","OK ",    000703.665,    -046.193,    -037.964,    0014.984,    0041.354
"FRM_AIS_EDR_2057.DAT           ",2005-08-21T17:12:25.58 ,"1/0072724340.29569",    0,   51,  209990,"AIS","B1","B1","B0","B0","PISd",0,0,0,0,"B1", 0,15,   0, 0,    0,"AIS","N/A    ","OK ","OK ",    000695.536,    -045.787,    -037.945,    0014.987,    0041.282
"FRM_AIS_EDR_2057.DAT           ",2005-08-21T17:12:33.12 ,"1/0072724347.65168",    0,   52,  209990,"AIS","B1","B1","B0","B0","PISd",0,0,0,0,"B1", 0,15,   0, 0,    0,"AIS","N/A    ","OK ","OK ",    000687.467,    -045.379,    -037.926,    0014.990,    0041.212
"FRM_AIS_EDR_2057.DAT           ",2005-08-21T17:12:40.66 ,"1/0072724355.35232",    0,   53,  209990,"AIS","B1","B1","B0","B0","PISd",0,0,0,0,"B1", 0,15,   0, 0,    0,"AIS","N/A    ","OK ","OK ",    000679.460,    -044.970,    -037.908,    0014.993,    0041.146
"FRM_AIS_EDR_2057.DAT           ",2005-08-21T17:12:48.21 ,"1/0072724363.05295",    0,   54,  209990,"AIS","B1","B1","B0","B0","PISd",0,0,0,0,"B1", 0,15,   0, 0,    0,"AIS","N/A    ","OK ","OK ",    000671.515,    -044.559,    -037.891,    0014.996,    0041.083
"FRM_AIS_EDR_2057.DAT           ",2005-08-21T17:12:55.75 ,"1/0072724370.40894",    0,   55,  209990,"AIS","B1","B1","B0","B0","PISd",0,0,0,0,"B1", 0,15,   0, 0,    0,"AIS","N/A    ","OK ","OK ",    000663.633,    -044.146,    -037.874,    0015.000,    0041.023
"FRM_AIS_EDR_2057.DAT           ",2005-08-21T17:13:03.29 ,"1/0072724378.10958",    0,   56,  209990,"AIS","B1","B1","B0","B0","PISd",0,0,0,0,"B1", 0,15,   0, 0,    0,"AIS","N/A    ","OK ","OK ",    000655.814,    -043.732,    -037.857,    0015.003,    0040.965
"FRM_AIS_EDR_2057.DAT           ",2005-08-21T17:13:10.84 ,"1/0072724385.46557",    0,   57,  209990,"AIS","B1","B1","B0","B0","PISd",0,0,0,0,"B1", 0,15,   0, 0,    0,"AIS","N/A    ","OK ","OK ",    000648.060,    -043.316,    -037.841,    0015.006,    0040.912
"FRM_AIS_EDR_2057.DAT           ",2005-08-21T17:13:18.38 ,"1/0072724393.16620",    0,   58,  209990,"AIS","B1","B1","B0","B0","PISd",0,0,0,0,"B1", 0,15,   0, 0,    0,"AIS","N/A    ","OK ","OK ",    000640.370,    -042.898,    -037.825,    0015.009,    0040.861
"FRM_AIS_EDR_2057.DAT           ",2005-08-21T17:13:25.92 ,"1/0072724400.52220",    0,   59,  209990,"AIS","B1","B1","B0","B0","PISd",0,0,0,0,"B1", 0,15,   0, 0,    0,"AIS","N/A    ","OK ","OK ",    000632.745,    -042.479,    -037.810,    0015.012,    0040.814
"FRM_AIS_EDR_2057.DAT           ",2005-08-21T17:13:33.47 ,"1/0072724408.22283",    0,   60,  209990,"AIS","B1","B1","B0","B0","PISd",0,0,0,0,"B1", 0,15,   0, 0,    0,"AIS","N/A    ","OK ","OK ",    000625.187,    -042.059,    -037.796,    0015.015,    0040.770
"FRM_AIS_EDR_2057.DAT           ",2005-08-21T17:13:41.01 ,"1/0072724415.57882",    0,   61,  209990,"AIS","B1","B1","B0","B0","PISd",0,0,0,0,"B1", 0,15,   0, 0,    0,"AIS","N/A    ","OK ","OK ",    000617.695,    -041.637,    -037.781,    0015.018,    0040.729
"FRM_AIS_EDR_2057.DAT           ",2005-08-21T17:13:48.55 ,"1/0072724423.27946",    0,   62,  209990,"AIS","B1","B1","B0","B0","PISd",0,0,0,0,"B1", 0,15,   0, 0,    0,"AIS","N/A    ","OK ","OK ",    000610.271,    -041.213,    -037.767,    0015.021,    0040.693
"FRM_AIS_EDR_2057.DAT           ",2005-08-21T17:13:56.10 ,"1/0072724430.63545",    0,   63,  209990,"AIS","B1","B1","B0","B0","PISd",0,0,0,0,"B1", 0,15,   0, 0,    0,"AIS","N/A    ","OK ","OK ",    000602.915,    -040.788,    -037.754,    0015.024,    0040.659
"FRM_AIS_EDR_2057.DAT           ",2005-08-21T17:14:03.64 ,"1/0072724438.33608",    0,   64,  209990,"AIS","B1","B1","B0","B0","PISd",0,0,0,0,"B1", 0,15,   0, 0,    0,"AIS","N/A    ","OK ","OK ",    000595.629,    -040.361,    -037.741,    0015.027,    0040.629
"FRM_AIS_EDR_2057.DAT           ",2005-08-21T17:14:11.18 ,"1/0072724446.03672",    0,   65,  209990,"AIS","B1","B1","B0","B0","PISd",0,0,0,0,"B1", 0,15,   0, 0,    0,"AIS","N/A    ","OK ","OK ",    000588.411,    -039.932,    -037.728,    0015.030,    0040.603
"FRM_AIS_EDR_2057.DAT           ",2005-08-21T17:14:18.72 ,"1/0072724453.39271",    0,   66,  209990,"AIS","B1","B1","B0","B0","PISd",0,0,0,0,"B1", 0,15,   0, 0,    0,"AIS","N/A    ","OK ","OK ",    000581.264,    -039.502,    -037.716,    0015.033,    0040.580
"FRM_AIS_EDR_2057.DAT           ",2005-08-21T17:14:26.27 ,"1/0072724461.09334",    0,   67,  209990,"AIS","B1","B1","B0","B0","PISd",0,0,0,0,"B1", 0,15,   0, 0,    0,"AIS","N/A    ","OK ","OK ",    000574.188,    -039.071,    -037.704,    0015.036,    0040.562
"FRM_AIS_EDR_2057.DAT           ",2005-08-21T17:14:33.81 ,"1/0072724468.44934",    0,   68,  209990,"AIS","B1","B1","B0","B0","PISd",0,0,0,0,"B1", 0,15,   0, 0,    0,"AIS","N/A    ","OK ","OK ",    000567.183,    -038.638,    -037.693,    0015.038,    0040.547
"FRM_AIS_EDR_2057.DAT           ",2005-08-21T17:14:41.35 ,"1/0072724476.14997",    0,   69,  209990,"AIS","B1","B1","B0","B0","PISd",0,0,0,0,"B1", 0,15,   0, 0,    0,"AIS","N/A    ","OK ","OK ",    000560.251,    -038.203,    -037.681,    0015.041,    0040.535
"FRM_AIS_EDR_2057.DAT           ",2005-08-21T17:14:48.90 ,"1/0072724483.50596",    0,   70,  209990,"AIS","B1","B1","B0","B0","PISd",0,0,0,0,"B1", 0,15,   0, 0,    0,"AIS","N/A    ","OK ","OK ",    000553.392,    -037.767,    -037.671,    0015.044,    0040.528
"FRM_AIS_EDR_2057.DAT           ",2005-08-21T17:14:56.44 ,"1/0072724491.20660",    0,   71,  209990,"AIS","B1","B1","B0","B0","PISd",0,0,0,0,"B1", 0,15,   0, 0,    0,"AIS","N/A    ","OK ","OK ",    000546.606,    -037.330,    -037.660,    0015.047,    0040.525
"FRM_AIS_EDR_2057.DAT           ",2005-08-21T17:15:03.98 ,"1/0072724498.56259",    0,   72,  209990,"AIS","B1","B1","B0","B0","PISd",0,0,0,0,"B1", 0,15,   0, 0,    0,"AIS","N/A    ","OK ","OK ",    000539.895,    -036.891,    -037.650,    0015.049,    0040.525
"FRM_AIS_EDR_2057.DAT           ",2005-08-21T17:15:11.53 ,"1/0072724506.26322",    0,   73,  209990,"AIS","B1","B1","B0","B0","PISd",0,0,0,0,"B1", 0,15,   0, 0,    0,"AIS","N/A    ","OK ","OK ",    000533.258,    -036.450,    -037.640,    0015.052,    0040.530
"FRM_AIS_EDR_2057.DAT           ",2005-08-21T17:15:19.07 ,"1/0072724513.61922",    0,   74,  209990,"AIS","B1","B1","B0","B0","PISd",0,0,0,0,"B1", 0,15,   0, 0,    0,"AIS","N/A    ","OK ","OK ",    000526.698,    -036.009,    -037.631,    0015.055,    0040.538
"FRM_AIS_EDR_2057.DAT           ",2005-08-21T17:15:26.61 ,"1/0072724521.31985",    0,   75,  209990,"AIS","B1","B1","B0","B0","PISd",0,0,0,0,"B1", 0,15,   0, 0,    0,"AIS","N/A    ","OK ","OK ",    000520.214,    -035.565,    -037.622,    0015.057,    0040.551
"FRM_AIS_EDR_2057.DAT           ",2005-08-21T17:15:34.16 ,"1/0072724529.02048",    0,   76,  209990,"AIS","B1","B1","B0","B0","PISd",0,0,0,0,"B1", 0,15,   0, 0,    0,"AIS","N/A    ","OK ","OK ",    000513.806,    -035.120,    -037.613,    0015.060,    0040.568
"FRM_AIS_EDR_2057.DAT           ",2005-08-21T17:15:41.70 ,"1/0072724536.37648",    0,   77,  209990,"AIS","B1","B1","B0","B0","PISd",0,0,0,0,"B1", 0,15,   0, 0,    0,"AIS","N/A    ","OK ","OK ",    000507.477,    -034.674,    -037.604,    0015.062,    0040.589
"FRM_AIS_EDR_2057.DAT           ",2005-08-21T17:15:49.24 ,"1/0072724544.07711",    0,   78,  209990,"AIS","B1","B1","B0","B0","PISd",0,0,0,0,"B1", 0,15,   0, 0,    0,"AIS","N/A    ","OK ","OK ",    000501.226,    -034.226,    -037.596,    0015.065,    0040.614
"FRM_AIS_EDR_2057.DAT           ",2005-08-21T17:15:56.79 ,"1/0072724551.43310",    0,   79,  209990,"AIS","B1","B1","B0","B0","PISd",0,0,0,0,"B1", 0,15,   0, 0,    0,"AIS","N/A    ","OK ","OK ",    000495.054,    -033.777,    -037.588,    0015.068,    0040.643
"FRM_AIS_EDR_2057.DAT           ",2005-08-21T17:16:04.33 ,"1/0072724559.13374",    0,   80,  209990,"AIS","B1","B1","B0","B0","PISd",0,0,0,0,"B1", 0,15,   0, 0,    0,"AIS","N/A    ","OK ","OK ",    000488.961,    -033.327,    -037.581,    0015.070,    0040.677
"FRM_AIS_EDR_2057.DAT           ",2005-08-21T17:16:11.87 ,"1/0072724566.48973",    0,   81,  209990,"AIS","B1","B1","B0","B0","PISd",0,0,0,0,"B1", 0,15,   0, 0,    0,"AIS","N/A    ","OK ","OK ",    000482.950,    -032.875,    -037.573,    0015.073,    0040.715
"FRM_AIS_EDR_2057.DAT           ",2005-08-21T17:16:19.42 ,"1/0072724574.19036",    0,   82,  209990,"AIS","B1","B1","B0","B0","PISd",0,0,0,0,"B1", 0,15,   0, 0,    0,"AIS","N/A    ","OK ","OK ",    000477.019,    -032.421,    -037.566,    0015.075,    0040.757
"FRM_AIS_EDR_2057.DAT           ",2005-08-21T17:16:26.96 ,"1/0072724581.54636",    0,   83,  209990,"AIS","B1","B1","B0","B0","PISd",0,0,0,0,"B1", 0,15,   0, 0,    0,"AIS","N/A    ","OK ","OK ",    000471.169,    -031.967,    -037.559,    0015.078,    0040.803
"FRM_AIS_EDR_2057.DAT           ",2005-08-21T17:16:34.50 ,"1/0072724589.24699",    0,   84,  209990,"AIS","B1","B1","B0","B0","PISd",0,0,0,0,"B1", 0,15,   0, 0,    0,"AIS","N/A    ","OK ","OK ",    000465.402,    -031.511,    -037.553,    0015.080,    0040.854
"FRM_AIS_EDR_2057.DAT           ",2005-08-21T17:16:42.05 ,"1/0072724596.60298",    0,   85,  209990,"AIS","B1","B1","B0","B0","PISd",0,0,0,0,"B1", 0,15,   0, 0,    0,"AIS","N/A    ","OK ","OK ",    000459.718,    -031.053,    -037.546,    0015.083,    0040.910
"FRM_AIS_EDR_2057.DAT           ",2005-08-21T17:16:49.59 ,"1/0072724604.30362",    0,   86,  209990,"AIS","B1","B1","B0","B0","PISd",0,0,0,0,"B1", 0,15,   0, 0,    0,"AIS","N/A    ","OK ","OK ",    000454.118,    -030.595,    -037.540,    0015.085,    0040.969
"FRM_AIS_EDR_2057.DAT           ",2005-08-21T17:16:57.13 ,"1/0072724612.00425",    0,   87,  209990,"AIS","B1","B1","B0","B0","PISd",0,0,0,0,"B1", 0,15,   0, 0,    0,"AIS","N/A    ","OK ","OK ",    000448.602,    -030.135,    -037.535,    0015.088,    0041.033
"FRM_AIS_EDR_2057.DAT           ",2005-08-21T17:17:04.68 ,"1/0072724619.36024",    0,   88,  209990,"AIS","B1","B1","B0","B0","PISd",0,0,0,0,"B1", 0,15,   0, 0,    0,"AIS","N/A    ","OK ","OK ",    000443.171,    -029.673,    -037.529,    0015.090,    0041.102
"FRM_AIS_EDR_2057.DAT           ",2005-08-21T17:17:12.22 ,"1/0072724627.06088",    0,   89,  209990,"AIS","B1","B1","B0","B0","PISd",0,0,0,0,"B1", 0,15,   0, 0,    0,"AIS","N/A    ","OK ","OK ",    000437.825,    -029.211,    -037.524,    0015.092,    0041.175
"FRM_AIS_EDR_2057.DAT           ",2005-08-21T17:17:19.76 ,"1/0072724634.41687",    0,   90,  209990,"AIS","B1","B1","B0","B0","PISd",0,0,0,0,"B1", 0,15,   0, 0,    0,"AIS","N/A    ","OK ","OK ",    000432.566,    -028.747,    -037.519,    0015.095,    0041.252